Location: Roanoke
(37.2710°N, 79.9420°W)
Time: 23:37:59
(UTC-05:00)

Courier 1B Rocket - Pass Details

Date: 22 November 2019
Orbit: 920 x 1202 km, 28.2° (Epoch: 09 December)

Event Time Altitude Azimuth Distance (km) Brightness Sun altitude
Rises 19:14:10 0° 263° (W) 3,954 9.6 -25.4°
Reaches altitude 10° 19:17:49 10° 246° (WSW) 3,038 8.5 -26.1°
Maximum altitude 19:22:49 19° 204° (SSW) 2,465 7.4 -27.1°
Drops below altitude 10° 19:27:56 10° 163° (SSE) 3,113 7.5 -28.1°
Enters shadow 19:28:50 - 158° (SSE) 3,319 7.6 -28.3°
Sets 19:31:45 0° 146° (SSE) 4,085 - -28.8°
